EDDN

Nuremberg Airport

Airport
ICAO code
EDDN
IATA Code
NUE
Summary
ICAO Region
EUR
ICAO Territory
Location

Nuremberg, Bavaria, Germany,

Serving
Nuremberg
Elevation
1046 ft
Coordinates
49° 29' 51" N , 11° 4' 37" E
KCC
Airport WX
Fog
Metar
Observation
EDDN 031650Z AUTO 25018KT 9999 -RADZ BKN011 OVC016 06/05 Q1022 TEMPO 4000 RADZ BKN008
Station
Nuernberg
Date/Time
2023-02-03 16:50:00
Wind direction
250°
Wind speed
18 kts
Lowest cloud amount
broken clouds
Temperature
6°C
Dew point
5°C
Humidity
93%
QNH
1022 hPa
Weather condition
drizzle

Description

International airport 5 km north of the city centre.

Climatology

Temperate Marine climate/Oceanic climate (Köppen climate classification Cfb). Moderately cool summer and comparatively warm winter with a temperature range of only 14°C. Prevailing south-westerly winds from the Atlantic Ocean.

Runways

Designator Length Width Surface Rops
10/28 2700 45 ASP Yes/Yes

SKYbrary Partners:

Safety knowledge contributed by: